[[{"header":{"parameterUnit":"m.s-1","parameterCategory":1,"la1":30.2991,"la2":30.254,"lo1":-89.0895,"lo2":-89.0444,"dy":0.0017,"dx":0.0017,"nx":28,"ny":28,"refTime":"2025-03-10T21:00:00:Z","depth":0,"parameterNumber":2,"parameterNumberName":"U-component_of_WINDS"},"data":[0,0,0,0,0,0,0,0,0,0,0,0,0,0,0,0,0,0,0,0,0,0,0,0,0,0,0,0,0,0,0,0,0,0,0,0,0,0,0,0,0,0,0,0,0,0,0,0,0,0,0,0,0,0,0,0,0,0,2.1151,2.1151,0,2.1144,2.1144,2.1144,2.1092,2.109,2.1089,2.1088,2.1082,2.1083,2.1084,0,0,0,0,0,0,0,0,0,0,0,0,0,2.1118,2.1119,2.1151,2.1151,2.1151,2.1144,2.1144,2.1144,2.1092,2.109,2.1089,2.1087,2.1081,2.1082,2.1084,0,0,0,0,0,0,0,0,0,0,0,0,0,2.1124,2.112,2.1151,2.1124,2.1121,2.1144,2.1144,2.1144,2.1092,2.109,2.1088,2.1087,2.1081,2.1082,2.1084,2.1132,0,0,2.1089,2.1089,0,0,0,0,0,0,0,0,2.1124,2.1126,2.1128,2.1126,2.1123,2.1117,2.113,2.114,2.1093,2.1103,2.1088,2.1086,2.1095,2.1095,2.1098,2.1132,2.1132,2.1089,2.109,2.109,2.1091,0,0,0,0,0,0,0,2.1124,2.1126,2.1148,2.1128,2.1125,2.1112,2.1111,2.1132,2.111,2.1102,2.1098,2.1098,2.1093,2.1097,2.1098,2.1132,2.1089,2.109,2.1091,2.1092,2.1207,2.1209,0,0,0,0,0,0,2.1127,2.1126,2.1148,2.1148,2.1119,2.1114,2.1113,2.1121,2.111,2.1106,2.11,2.1096,2.1095,2.1096,2.1097,2.1154,2.109,2.1092,2.1093,2.1205,2.1207,2.1209,0,0,0,0,0,0,2.1126,2.1129,2.1149,2.1136,2.1137,2.1117,2.1126,2.1122,2.1125,2.1108,2.1104,2.1108,2.1094,2.1095,2.1124,2.1153,2.1093,2.1094,2.1202,2.1205,2.1208,2.1269,0,0,0,0,0,0,2.1126,2.113,2.1148,2.1137,2.1138,2.1176,2.1128,2.1123,2.1128,2.1123,2.1114,2.1111,2.1092,2.1122,2.1126,2.1154,2.1095,2.1199,2.1204,2.1207,2.1264,2.1273,2.1282,0,0,0,0,0,2.1125,2.1165,2.1149,2.1152,2.116,2.1177,2.1178,2.1156,2.1131,2.1149,2.1138,2.1111,2.115,2.1126,2.1129,2.1159,2.1198,2.1202,2.1207,2.126,2.1272,2.1281,0,0,0,0,0,0,2.1179,2.1163,2.1145,2.1182,2.1182,2.1169,2.1191,2.1169,2.1175,2.117,2.1142,2.1141,2.1175,2.1169,2.1143,2.1206,2.1169,2.1175,2.1208,2.1219,2.1228,2.1228,2.1096,0,0,0,0,0,2.1196,2.1211,2.1196,2.123,2.1231,2.1211,2.1218,2.1201,2.1199,2.1198,2.119,2.1189,2.1201,2.121,2.122,2.1263,2.1261,2.1285,2.1294,2.1301,2.1307,2.133,2.1341,2.1225,2.1225,2.1225,0,0,2.1229,2.1222,2.1234,2.1241,2.1238,2.1255,2.1211,2.1231,2.1243,2.1201,2.1229,2.1223,2.122,2.1257,2.1273,2.1254,2.1338,2.1307,2.1313,2.1315,2.1336,2.1347,2.1357,2.1228,2.1228,2.1227,0,0,2.13,2.1296,2.1325,2.1324,2.1321,2.1307,2.1315,2.1305,2.1299,2.1327,2.1296,2.1311,2.1331,2.1332,2.1334,2.1407,2.1383,2.1411,2.1457,2.148,2.149,2.1498,2.1524,2.1534,2.1416,2.1416,2.1416,0,2.1343,2.1367,2.1342,2.1364,2.1369,2.1332,2.1362,2.1362,2.1362,2.1366,2.1345,2.1372,2.1367,2.1404,2.1422,2.1425,2.1433,2.1412,2.149,2.1498,2.1505,2.153,2.154,2.142,2.1419,2.1419,2.1419,0,2.142,2.1437,2.1461,2.1463,2.147,2.1496,2.1476,2.1486,2.1469,2.1458,2.1487,2.148,2.1489,2.1497,2.1479,2.1532,2.152,2.1495,2.1457,2.152,2.1543,2.1553,2.1425,2.1423,2.1422,2.1421,0,0,2.1524,2.1513,2.1522,2.1524,2.1518,2.1531,2.1556,2.1565,2.1575,2.1576,2.1597,2.1616,2.1593,2.1596,2.1579,2.16,2.1659,2.1572,2.1572,2.1589,2.1717,2.1737,2.1748,2.1643,2.1645,2.1646,2.1718,0,2.1593,2.1634,2.1613,2.1657,2.1674,2.164,2.1661,2.166,2.1651,2.1664,2.1654,2.1669,2.1637,2.1639,2.1657,2.1648,2.1684,2.1642,2.1662,2.1663,2.1665,2.176,2.1781,2.1849,2.1727,2.1728,2.1729,0,2.1678,2.1685,2.1731,2.1724,2.173,2.1749,2.1756,2.1769,2.1768,2.176,2.1765,2.1743,2.1767,2.1729,2.1763,2.1735,2.1742,2.1738,2.174,2.1742,2.1701,2.1765,2.187,2.1881,2.1743,2.1742,2.1741,0,2.1751,2.1771,2.1802,2.1803,2.1796,2.1811,2.1808,2.1805,2.1812,2.1818,2.1823,2.1832,2.1837,2.1845,2.1826,2.18,2.1862,2.1823,2.1857,2.1858,2.1872,2.1872,2.198,2.1876,2.1875,2.1875,2.1875,0,2.1831,2.186,2.1834,2.1853,2.1886,2.1862,2.1895,2.1888,2.1886,2.1904,2.1874,2.1891,2.1866,2.188,2.1866,2.1896,2.1899,2.1893,2.1889,2.1896,2.1897,2.1901,2.1896,2.1878,2.1877,2.1877,2.1876,0,2.1918,2.1901,2.1932,2.1923,2.1921,2.1946,2.1938,2.1955,2.1944,2.1967,2.1971,2.1954,2.197,2.1952,2.1966,2.1956,2.1998,2.1986,2.1999,2.1996,2.2031,2.2028,2.2146,2.2161,2.2046,2.2048,2.2048,0,2.197,2.1992,2.1985,2.1995,2.1994,2.201,2.2018,2.1995,2.2004,2.2005,2.2023,2.2036,2.2046,2.2073,2.2062,2.2073,2.2062,2.2103,2.2063,2.207,2.2064,2.2063,2.2066,2.2111,2.2112,2.2113,2.2114,0,2.2065,2.2056,2.2067,2.2077,2.2087,2.2093,2.2097,2.2107,2.2083,2.2095,2.2111,2.2118,2.2133,2.2147,2.2156,2.2153,2.2131,2.2127,2.2135,2.2143,2.215,2.2148,2.2021,2.2124,2.2123,2.2122,2.2122,2.2122,2.2136,2.2155,2.2154,2.2168,2.2169,2.2174,2.219,2.2181,2.2194,2.2205,2.2191,2.2211,2.2211,2.2219,2.222,2.2236,2.2218,2.223,2.2234,2.2237,2.2243,2.2147,2.2237,2.2236,2.2236,2.2236,2.2236,0,2.223,2.2228,2.2242,2.2249,2.226,2.2238,2.2241,2.2253,2.2271,2.2273,2.2283,2.2302,2.2316,2.2306,2.2318,2.2333,2.2323,2.2337,2.2336,2.2336,2.2257,2.2249,2.2345,2.2345,2.2345,2.2345,2.2345,2.2345,2.2281,2.2312,2.2303,2.2334,2.2331,2.2351,2.2356,2.236,2.2361,2.2384,2.2395,2.2389,2.2387,2.2398,2.241,2.2407,2.2413,2.2431,2.2425,2.2352,2.2341,2.2331,2.2323,2.2433,2.2433,2.2502,2.2503,2.2503]},{"header":{"parameterUnit":"m.s-1","parameterCategory":1,"la1":30.2991,"la2":30.254,"lo1":-89.0895,"lo2":-89.0444,"dy":0.0017,"dx":0.0017,"nx":28,"ny":28,"refTime":"2025-03-10T21:00:00:Z","depth":0,"parameterNumber":3,"parameterNumberName":"V-component_of_WINDS"},"data":[0,0,0,0,0,0,0,0,0,0,0,0,0,0,0,0,0,0,0,0,0,0,0,0,0,0,0,0,0,0,0,0,0,0,0,0,0,0,0,0,0,0,0,0,0,0,0,0,0,0,0,0,0,0,0,0,0,0,-1.4142,-1.4142,0,-1.4154,-1.4154,-1.4154,-1.4154,-1.4154,-1.4154,-1.4154,-1.4166,-1.4167,-1.4167,0,0,0,0,0,0,0,0,0,0,0,0,0,-1.4119,-1.412,-1.4142,-1.4142,-1.4142,-1.4154,-1.4154,-1.4154,-1.4154,-1.4154,-1.4154,-1.4154,-1.4166,-1.4167,-1.4167,0,0,0,0,0,0,0,0,0,0,0,0,0,-1.413,-1.412,-1.4142,-1.4144,-1.4144,-1.4154,-1.4154,-1.4154,-1.4154,-1.4154,-1.4154,-1.4154,-1.4166,-1.4166,-1.4167,-1.4177,0,0,-1.4169,-1.417,0,0,0,0,0,0,0,0,-1.4129,-1.4131,-1.4143,-1.4143,-1.4144,-1.4152,-1.4151,-1.4162,-1.4154,-1.415,-1.4154,-1.4153,-1.4162,-1.4163,-1.4166,-1.4177,-1.4178,-1.4169,-1.417,-1.417,-1.417,0,0,0,0,0,0,0,-1.4129,-1.413,-1.4147,-1.4143,-1.4144,-1.4144,-1.4145,-1.4153,-1.4157,-1.4151,-1.4151,-1.4152,-1.4162,-1.4165,-1.4166,-1.4178,-1.4169,-1.417,-1.4171,-1.4171,-1.4199,-1.4199,0,0,0,0,0,0,-1.4128,-1.413,-1.4146,-1.4147,-1.4136,-1.4145,-1.4146,-1.415,-1.4157,-1.4158,-1.4152,-1.4152,-1.4164,-1.4165,-1.4166,-1.4178,-1.417,-1.4171,-1.4171,-1.4198,-1.4199,-1.4199,0,0,0,0,0,0,-1.4127,-1.4129,-1.4146,-1.4138,-1.4141,-1.4145,-1.415,-1.415,-1.4153,-1.4158,-1.4159,-1.4155,-1.4164,-1.4165,-1.4174,-1.4179,-1.4171,-1.4172,-1.4198,-1.4198,-1.4199,-1.4201,0,0,0,0,0,0,-1.4126,-1.4129,-1.4132,-1.4139,-1.4141,-1.4153,-1.415,-1.4151,-1.4155,-1.4154,-1.4161,-1.4162,-1.4164,-1.4173,-1.4175,-1.4179,-1.4172,-1.4197,-1.4198,-1.4199,-1.4201,-1.4202,-1.4203,0,0,0,0,0,-1.4126,-1.4132,-1.4132,-1.4134,-1.4145,-1.4154,-1.4155,-1.4157,-1.4155,-1.4158,-1.4162,-1.4161,-1.4178,-1.4174,-1.4176,-1.4181,-1.4197,-1.4198,-1.4199,-1.4201,-1.4202,-1.4203,0,0,0,0,0,0,-1.4126,-1.4133,-1.4133,-1.4142,-1.4147,-1.4153,-1.4158,-1.4158,-1.4164,-1.4164,-1.4166,-1.4168,-1.4177,-1.418,-1.4175,-1.4191,-1.4187,-1.4188,-1.4188,-1.4189,-1.419,-1.4189,-1.4173,0,0,0,0,0,-1.4127,-1.4133,-1.4139,-1.4146,-1.4149,-1.4153,-1.4157,-1.4158,-1.4164,-1.4166,-1.417,-1.4175,-1.4182,-1.4186,-1.4192,-1.4202,-1.4203,-1.4206,-1.4207,-1.4208,-1.4209,-1.4215,-1.4216,-1.4201,-1.4201,-1.4201,0,0,-1.4129,-1.4134,-1.4138,-1.4147,-1.4151,-1.4157,-1.4155,-1.4162,-1.4166,-1.4167,-1.4175,-1.4179,-1.4185,-1.4194,-1.4199,-1.4197,-1.4213,-1.4209,-1.4209,-1.421,-1.4215,-1.4217,-1.4218,-1.4202,-1.4202,-1.4201,0,0,-1.4137,-1.4141,-1.4148,-1.4152,-1.4159,-1.4162,-1.4163,-1.417,-1.4172,-1.4181,-1.4181,-1.4188,-1.4198,-1.4203,-1.4207,-1.4217,-1.4217,-1.4219,-1.4224,-1.423,-1.4231,-1.4232,-1.4236,-1.4237,-1.422,-1.422,-1.422,0,-1.4139,-1.4148,-1.4151,-1.4158,-1.4162,-1.4163,-1.4171,-1.4175,-1.4183,-1.4186,-1.4184,-1.4198,-1.4203,-1.4214,-1.4216,-1.4219,-1.4222,-1.4218,-1.4231,-1.4232,-1.4233,-1.4236,-1.4238,-1.4221,-1.4221,-1.4221,-1.4221,0,-1.4151,-1.4158,-1.4162,-1.417,-1.4175,-1.4182,-1.4186,-1.4191,-1.4192,-1.4196,-1.4205,-1.421,-1.4218,-1.4221,-1.4222,-1.4232,-1.4231,-1.423,-1.4226,-1.4234,-1.4238,-1.4239,-1.4221,-1.4221,-1.4221,-1.4221,0,0,-1.4158,-1.4168,-1.417,-1.4174,-1.4182,-1.4187,-1.4195,-1.4202,-1.4206,-1.4212,-1.4219,-1.4229,-1.4228,-1.4232,-1.4234,-1.4239,-1.4248,-1.4238,-1.4238,-1.4239,-1.426,-1.426,-1.4262,-1.4248,-1.4248,-1.4249,-1.4259,0,-1.4166,-1.4179,-1.4182,-1.4194,-1.42,-1.4202,-1.4209,-1.4214,-1.4218,-1.4224,-1.4228,-1.4235,-1.4233,-1.4236,-1.4242,-1.4246,-1.4252,-1.4245,-1.4254,-1.4255,-1.4252,-1.4264,-1.4264,-1.4274,-1.4261,-1.4261,-1.4261,0,-1.4177,-1.4184,-1.4196,-1.4204,-1.4206,-1.4212,-1.422,-1.4226,-1.4233,-1.4235,-1.424,-1.4242,-1.425,-1.4247,-1.4259,-1.4254,-1.4258,-1.4261,-1.4261,-1.4262,-1.4258,-1.4265,-1.4277,-1.4279,-1.4263,-1.4263,-1.4263,0,-1.4181,-1.4193,-1.4202,-1.4205,-1.4215,-1.4219,-1.4223,-1.4229,-1.4234,-1.4241,-1.4244,-1.4252,-1.4256,-1.4262,-1.4266,-1.4264,-1.4278,-1.4275,-1.428,-1.428,-1.4283,-1.4282,-1.4296,-1.4286,-1.4286,-1.4286,-1.4286,0,-1.419,-1.4197,-1.4204,-1.4209,-1.4218,-1.4222,-1.423,-1.4234,-1.4241,-1.4247,-1.4249,-1.4255,-1.426,-1.4267,-1.4271,-1.428,-1.4282,-1.4284,-1.4285,-1.4284,-1.4283,-1.4286,-1.4285,-1.4286,-1.4286,-1.4286,-1.4286,0,-1.4196,-1.42,-1.421,-1.4219,-1.4221,-1.4227,-1.4234,-1.4239,-1.4244,-1.4252,-1.4254,-1.426,-1.4269,-1.4273,-1.4284,-1.4286,-1.4297,-1.4297,-1.4294,-1.4295,-1.43,-1.4299,-1.4315,-1.4318,-1.4306,-1.4306,-1.4306,0,-1.4201,-1.4206,-1.4216,-1.422,-1.4224,-1.4232,-1.4237,-1.4241,-1.4246,-1.4255,-1.426,-1.4269,-1.4276,-1.4289,-1.4295,-1.4303,-1.4303,-1.4309,-1.4305,-1.4304,-1.4304,-1.4303,-1.4304,-1.4309,-1.4309,-1.4309,-1.4309,0,-1.4209,-1.4212,-1.4219,-1.4227,-1.4233,-1.424,-1.4246,-1.425,-1.4256,-1.4261,-1.427,-1.4276,-1.4287,-1.4296,-1.4304,-1.4309,-1.431,-1.4311,-1.4312,-1.4311,-1.4309,-1.431,-1.4296,-1.431,-1.431,-1.431,-1.431,-1.431,-1.4215,-1.422,-1.4228,-1.4236,-1.4241,-1.4248,-1.4253,-1.4259,-1.4266,-1.4275,-1.4278,-1.4287,-1.4295,-1.4307,-1.4312,-1.4319,-1.4318,-1.4321,-1.4321,-1.4322,-1.4322,-1.4308,-1.4321,-1.4321,-1.4321,-1.4321,-1.4321,0,-1.4224,-1.4229,-1.4236,-1.4245,-1.4252,-1.4253,-1.4261,-1.4266,-1.4274,-1.4281,-1.4288,-1.4299,-1.4308,-1.4314,-1.4323,-1.4328,-1.4329,-1.433,-1.433,-1.4331,-1.4322,-1.432,-1.433,-1.433,-1.433,-1.433,-1.433,-1.433,-1.4229,-1.4238,-1.4242,-1.4254,-1.4259,-1.4268,-1.4273,-1.4279,-1.4284,-1.4296,-1.4303,-1.4308,-1.4315,-1.4325,-1.4333,-1.4335,-1.4338,-1.4339,-1.4341,-1.4333,-1.4332,-1.4331,-1.4328,-1.434,-1.434,-1.4349,-1.4349,-1.4349]}]]